Regional Weather Roundup
Issued by NWS

Home | Current Version | Previous Version | Text Only | Print | Product List | Glossary Off
Versions: 1 2 3 4 5 6 7 8 9 10 11 12 13 14 15 16 17 18 19 20 21 22 23 24 25 26 27 28 29 30 31 32 33 34 35 36 37 38 39 40 41 42 43 44 45 46 47 48 49 50

000
ASUS43 KMPX 221410
RWRMN
WEATHER ROUNDUP FOR MINNESOTA
NATIONAL WEATHER SERVICE TWIN CITIES/CHANHASSEN MN
800 AM CST MON DEC 22 2014


NOTE: "FAIR" INDICATES FEW OR NO CLOUDS BELOW 12,000 FEET WITH NO
SIGNIFICANT WEATHER AND/OR OBSTRUCTIONS TO VISIBILITY. N/A MEANS
CURRENT SKY AND/OR WEATHER CONDITIONS ARE NOT AVAILABLE.

MNZ060>063-068>070-221500-
   Twin Cities Metro

CITY           SKY/WX    TMP DP  RH WIND       PRES   REMARKS
TWIN CITIES    CLOUDY    37  34  89 SE14      29.67S FOG
ST PAUL        CLOUDY    37  35  92 SE13      29.68F FOG
CRYSTAL        CLOUDY    38  35  89 SE12G23   29.65S FOG
BLAINE         CLOUDY    39  39 100 SE12G17   29.66S FOG
LAKEVILLE      CLOUDY    36  34  93 SE10      29.66S FOG
EDEN PRAIRIE   CLOUDY    37  35  92 SE15      29.64S FOG
SOUTH ST PAUL  CLOUDY    37  36  95 SE9       29.68S FOG
LAKE ELMO      CLOUDY    36  36 100 SE10G16   29.69S FOG
$$
MNZ001>005-007-008-013>017-022>024-027-028-221500-
   Northwest Minnesota

CITY           SKY/WX    TMP DP  RH WIND       PRES   REMARKS
BEMIDJI        CLOUDY    34  33  99 E8        29.57R FOG     WCI  27
HALLOCK        CLOUDY    36  34  93 E9        29.57R FOG
ROSEAU         CLOUDY    34  30  86 E9        29.60S FOG     WCI  26
WARROAD        CLOUDY    34  28  80 E9        29.62R FOG     WCI  26
THIEF RVR FALL CLOUDY    36  34  93 E12       29.56S
CROOKSTON      CLOUDY    36  34  93 E7        29.55S
FOSSTON        CLOUDY    34  34 100 E6        29.56R FOG     WCI  29
DETROIT LAKES  CLOUDY    36  36 100 SE8       29.53R FOG
MOORHEAD       CLOUDY    37  37 100 SE8       29.51S FOG
PARK RAPIDS    CLOUDY    36  35  96 SE14      29.54S FOG
MAHNOMEN       CLOUDY    35  34  96 SE7       29.53R WCI  29
$$
MNZ006-009>011-018-025>026-221500-
   North Central Minnesota

CITY           SKY/WX    TMP DP  RH WIND       PRES   REMARKS
BAUDETTE       CLOUDY    33  32  96 E9        29.62R WCI  25
FLAG ISLAND    CLOUDY    34  32  93 E7        29.62S FOG     WCI  28
INTL FALLS     CLOUDY    33  32  96 E8        29.65S WCI  26
WASKISH        CLOUDY    34  34 100 CALM      29.61S FOG
BIG FORK       CLOUDY    34  34 100 SE6       29.64R FOG     WCI  29
LONGVILLE      DRIZZLE   36  36 100 SE8       29.59S
GRAND RAPIDS   CLOUDY    34  34 100 SE8       29.63S WCI  27
CRANE LAKE     CLOUDY    32  32 100 CALM      29.70S
ORR            CLOUDY    34  30  86 SE5       29.64S FOG     WCI  30
COOK           CLOUDY    34  34 100 SE7       29.67S WCI  28
WALKER         DRIZZLE   33  33  99 SE5       29.58R WCI  29
$$
MNZ012-019>021-037-221500-
   Northeast Minnesota

CITY           SKY/WX    TMP DP  RH WIND       PRES   REMARKS
DULUTH         SNOW      33  31  92 E9        29.69S VSB 1/4 WCI  25
ELY            LGT SNOW  32  32 100 SE6       29.70R WCI  26
HIBBING        CLOUDY    35  31  85 SE8       29.66S WCI  29
EVELETH        LGT SNOW  32  32 100 SE6       29.69R WCI  26
DULUTH HARBOR  MIX PCPN  36  34  93 E5        29.74R
TWO HARBORS    CLOUDY    36  30  80 NE2       29.71S
SILVER BAY     LGT SNOW  34  32  93 CALM      29.73R
GRAND MARAIS     N/A     35  34  96 S6        29.80S WCI  30
G MARAIS ARPRT MIX PCPN  30  27  86 CALM      29.76R
$$
MNZ029>031-032-039>041-046>048-054>057-064-221500-
   West Central Minnesota

CITY           SKY/WX    TMP DP  RH WIND       PRES   REMARKS
FERGUS FALLS   DRIZZLE   36  36 100 SE10      29.54R
WHEATON        CLOUDY    34  34 100 SE10      29.51S FOG     WCI  26
MORRIS         LGT RAIN  36  36 100 SE16      29.50S
ALEXANDRIA     CLOUDY    37  36  96 SE14      29.54S FOG
ELBOW LAKE     CLOUDY    36  36 100 SE15      29.50S FOG
WADENA         CLOUDY    34  34 100 SE10      29.54S FOG     WCI  26
GLENWOOD       DRIZZLE   36  36 100 SE14      29.54F
APPLETON       DRIZZLE   39  37  93 SE12      29.50F
BENSON         LGT RAIN  37  36  93 S13       29.52F
ORTONVILLE     LGT RAIN  36  34  93 SE12      29.48F
MADISON        LGT RAIN  39  39 100 SE14      29.49F
WILLMAR        DRIZZLE   37  36  93 SE13      29.56S
$$
MNZ033>034-036-042>043-049>051-058-059-221500-
   Central Minnesota

CITY           SKY/WX    TMP DP  RH WIND       PRES   REMARKS
ST CLOUD       CLOUDY    39  36  89 SE13      29.61S FOG
SAUK CENTRE    CLOUDY    36  35  99 SE15      29.56S FOG
PAYNESVILLE    DRIZZLE   34  34 100 E10       29.58S WCI  26
AITKIN         CLOUDY    37  34  87 SE7       29.61S HAZE
PINE RIVER     DRIZZLE   36  36 100 SE8       29.63S
BRAINERD       CLOUDY    36  35  96 SE12G18   29.60S
STAPLES        CLOUDY    36  36 100 SE6       29.57R FOG
LONG PRAIRIE   CLOUDY    34  34 100 SE12      29.56S FOG     WCI  25
LITTLE FALLS   CLOUDY    36  34  93 SE10G16   29.59S FOG
LITCHFIELD     DRIZZLE   37  37 100 SE10G17   29.59S
BUFFALO        CLOUDY    37  36  93 SE13      29.63S FOG
MAPLE LAKE     CLOUDY    38  38  99 SE10      29.62S FOG
$$
MNZ037-044-045-052-053-221500-
   East Central Minnesota

CITY           SKY/WX    TMP DP  RH WIND       PRES   REMARKS
PRINCETON      CLOUDY    37  36  93 SE9       29.64S FOG
MORA           CLOUDY    32  32 100 SE8       29.67S WCI  25
CAMBRIDGE      CLOUDY    37  30  75 SE8       29.64S HAZE
RUSH CITY      CLOUDY    36  34  94 SE12      29.68S
MOOSE LAKE     CLOUDY    34  34 100 SE3       29.66S FOG
HINCKLEY       CLOUDY    36  36 100 SE7       29.67S FOG
CLOQUET        LGT SNOW  34  32  93 E6        29.68S VSB 1   WCI  29
MCGREGOR       CLOUDY    34  34 100 SE10      29.64S WCI  26
$$
MNZ071>073-080-081-089-090-097-098-221500-
   Southwest Minnesota

CITY           SKY/WX    TMP DP  RH WIND       PRES   REMARKS
MONTEVIDEO     DRIZZLE   37  37 100 S12       29.52F
GRANITE FALLS  DRIZZLE   38  38  98 SE14      29.54S
CANBY          DRIZZLE   37  36  99 SE9       29.49S
MARSHALL       CLOUDY    37  36  93 SE12      29.50F
REDWOOD FALLS  CLOUDY    39  38  96 SE18      29.55S FOG
OLIVIA         DRIZZLE   37  36  93 SE14G20   29.55S
PIPESTONE      DRIZZLE   37  37 100 S12       29.46S
WINDOM         DRIZZLE   39  37  93 SE12      29.54S
WORTHINGTON    CLOUDY    37 -11  12 SE15G22   29.51F
JACKSON        DRIZZLE   37  36  93 SE14      29.55F
TRACY          LGT RAIN  39  38  97 S12G17    29.51S
SLAYTON        CLOUDY    37  37 100 SE15      29.50F FOG
$$
MNZ065>067-074>077-082>085-091>093-221500-
   South Central Minnesota

CITY           SKY/WX    TMP DP  RH WIND       PRES   REMARKS
MANKATO        CLOUDY    37  34  87 SE18      29.61F
NEW ULM        DRIZZLE   37  37 100 SE10G20   29.58S
ST JAMES       DRIZZLE   39  37  93 SE16G22   29.59S
FAIRMONT       CLOUDY    37  34  87 SE21G26   29.58S
GLENCOE        DRIZZLE   38  38  98 SE13G18   29.60F
FARIBAULT      CLOUDY    37  36  93 SE17      29.66S FOG
OWATONNA       DRIZZLE   36  34  93 SE15      29.65S
WASECA         RAIN      36  36 100 SE18G24   29.65S
ALBERT LEA     FOG       36  36 100 SE15G23   29.64S VSB 1/2
$$
MNZ078>079-086>088-094>096-221500-
   Southeast Minnesota

CITY           SKY/WX    TMP DP  RH WIND       PRES   REMARKS
ROCHESTER      CLOUDY    34  33  96 SE14      29.69F FOG     WCI  25
RED WING       CLOUDY    36  36 100 SE10G18   29.70S FOG
STANTON        CLOUDY    37  34  87 SE16G23   29.65F FOG
DODGE CENTER   CLOUDY    34  34 100 SE17      29.66F FOG     WCI  23
WINONA         CLOUDY    36  34  93 SE9       29.76S FOG
AUSTIN         LGT RAIN  36  34  93 SE10      29.67S
PRESTON        CLOUDY    33  32  96 SE8       29.72S FOG     WCI  26
$$
ABBREVIATIONS USED IN REMARKS
   TC - TEMPERATURES IN CELSIUS
  WCI - WIND CHILL INDEX
   HX - HEAT INDEX
  VSB - VISIBILITY
$$


USA.gov is the U.S. government's official web portal to all federal, state and local government web resources and services.